Weather History for Homestead AFB, FL

Change the Weather History Date:

Sunday, December 30, 2012

  Actual Average Record
Temperature  
Mean Temperature 62 °F -  
Max Temperature 70 °F 77 °F 85 °F (1953)
Min Temperature 53 °F 56 °F 32 °F (1961)
Degree Days  
Heating Degree Days 4    
Growing Degree Days 12 (Base 50)    
Moisture  
Dew Point 51 °F    
Average Humidity 67    
Maximum Humidity 81    
Minimum Humidity 57    
Precipitation  
Precipitation 0.00 in - - ()
Sea Level Pressure  
Sea Level Pressure 30.23 in    
Wind  
Wind Speed 13 mph (NNE)    
Max Wind Speed 18 mph    
Max Gust Speed 26 mph    
Visibility 10 miles    
Events      
Averages and records for this station are not official NWS values.
T = Trace of Precipitation, MM = Missing Value Source: NWS Daily Summary

Daily Weather History Graph

Daily Weather History Graph

Search for Another Location

Airport:

Trip Planner

Search our weather history database for the weather conditions in past years. The results will help you decide how hot, cold, wet, or windy it might be!

Date:

Astronomy

Dec. 30, 2012 Rise Set
Actual Time 7:07 AM EST 5:41 PM EST
Civil Twilight 6:42 AM EST 6:06 PM EST
Nautical Twilight 6:13 AM EST 6:35 PM EST
Astronomical Twilight 5:45 AM EST 7:03 PM EST
Moon 7:55 PM EST (12/30) 8:28 AM EST (12/30)
Length of Visible Light 11h 24m
Length of Day
10h 34m
Waning Gibbous, 95% of the Moon is Illuminated
Dec 30
Waning Gibbous
Jan 4
Last Quarter
Jan 11
New
Jan 18
First Quarter
Jan 26
Full

Hourly Weather History & Observations

Time (EST) Temp. Dew Point Humidity Pressure Visibility Wind Dir Wind Speed Gust Speed Precip Events Conditions
12:55 AM 64.0 °F 50.5 °F 61% 30.13 in 10.0 mi NNW 13.8 mph - N/A   Clear
1:55 AM 59.7 °F 48.9 °F 67% 30.15 in 10.0 mi NNW 13.8 mph - N/A   Clear
2:55 AM 57.4 °F 50.2 °F 77% 30.16 in 10.0 mi NNW 13.8 mph - N/A   Clear
3:55 AM 55.8 °F 49.5 °F 79% 30.17 in 10.0 mi NNW 10.4 mph - N/A   Clear
4:55 AM 54.0 °F 48.4 °F 81% 30.18 in 10.0 mi NNW 8.1 mph - N/A   Clear
5:55 AM 53.6 °F 46.6 °F 77% 30.19 in 10.0 mi North 9.2 mph - N/A   Clear
6:55 AM 53.2 °F 47.3 °F 80% 30.21 in 10.0 mi North 10.4 mph - N/A   Clear
7:55 AM 53.1 °F 46.4 °F 78% 30.24 in 10.0 mi North 16.1 mph - N/A   Clear
8:55 AM 54.7 °F 43.5 °F 66% 30.25 in 10.0 mi North 17.3 mph - N/A   Clear
9:55 AM 57.2 °F 46.0 °F 66% 30.28 in 10.0 mi North 15.0 mph - N/A   Clear
10:55 AM 60.4 °F 48.2 °F 64% 30.27 in 10.0 mi North 12.7 mph - N/A   Clear
11:55 AM 64.4 °F 50.0 °F 59% 30.26 in 10.0 mi North 11.5 mph - N/A   Clear
12:55 PM 66.2 °F 51.3 °F 59% 30.23 in 10.0 mi NNE 12.7 mph - N/A   Clear
1:55 PM 68.4 °F 52.7 °F 57% 30.22 in 10.0 mi NNE 16.1 mph - N/A   Clear
2:55 PM 70.0 °F 55.0 °F 59% 30.21 in 10.0 mi NNE 18.4 mph 26.5 mph N/A   Partly Cloudy
3:55 PM 68.5 °F 55.6 °F 63% 30.22 in 10.0 mi NE 13.8 mph - N/A   Overcast
4:55 PM 68.0 °F 54.3 °F 62% 30.23 in 10.0 mi NNE 18.4 mph - N/A   Mostly Cloudy
5:55 PM 67.5 °F 54.3 °F 63% 30.25 in 10.0 mi NNE 12.7 mph - N/A   Overcast
6:55 PM 67.3 °F 55.8 °F 66% 30.26 in 10.0 mi NE 17.3 mph 23.0 mph N/A   Mostly Cloudy
7:55 PM 66.4 °F 54.5 °F 66% 30.27 in 10.0 mi NE 13.8 mph - N/A   Scattered Clouds
8:55 PM 66.6 °F 55.6 °F 68% 30.28 in 10.0 mi ENE 12.7 mph - N/A   Mostly Cloudy
9:55 PM 66.2 °F 54.3 °F 65% 30.28 in 10.0 mi NE 12.7 mph - N/A   Mostly Cloudy
10:55 PM 66.9 °F 54.9 °F 65% 30.28 in 10.0 mi ENE 16.1 mph 24.2 mph N/A   Mostly Cloudy
11:55 PM 66.2 °F 55.0 °F 67% 30.27 in 10.0 mi ENE 10.4 mph - N/A   Mostly Cloudy